Weather History for KGUS - February, 2013

Change the Weather History Date:

Monday, February 25, 2013

  Actual Average Record
Temperature  
Mean Temperature 32 °F -  
Max Temperature 42 °F 39 °F 56 °F (2009)
Min Temperature 21 °F 25 °F -2 °F (2003)
Degree Days  
Heating Degree Days 34    
Moisture  
Dew Point 25 °F    
Average Humidity 76    
Maximum Humidity 91    
Minimum Humidity 57    
Precipitation  
Precipitation 0.00 in - - ()
Sea Level Pressure  
Sea Level Pressure 30.10 in    
Wind  
Wind Speed 8 mph (East)    
Max Wind Speed 16 mph    
Max Gust Speed 18 mph    
Visibility 10 miles    
Events      
Averages and records for this station are not official NWS values.
T = Trace of Precipitation, MM = Missing Value Source: NWS Daily Summary

Daily Weather History Graph

Daily Weather History Graph

Search for Another Location

Airport or City:

Trip Planner

Search our weather history database for the weather conditions in past years. The results will help you decide how hot, cold, wet, or windy it might be!

Date:

Astronomy

Feb. 25, 2013 Rise Set
Actual Time 7:24 AM EST 6:31 PM EST
Civil Twilight 6:56 AM EST 6:59 PM EST
Nautical Twilight 6:24 AM EST 7:30 PM EST
Astronomical Twilight 5:53 AM EST 8:02 PM EST
Moon 6:44 PM EST (2/25) 6:53 AM EST (2/25)
Length of Visible Light 12h 02m
Length of Day
11h 07m
Full, 100% of the Moon is Illuminated
Feb 25
Full
Feb 25
Full
Mar 4
Last Quarter
Mar 11
New
Mar 19
First Quarter

Hourly Weather History & Observations

Time (EST) Temp. Windchill Dew Point Humidity Pressure Visibility Wind Dir Wind Speed Gust Speed Precip Events Conditions
12:55 AM 27.1 °F 21.8 °F 22.8 °F 84% 30.16 in 10.0 mi ESE 4.6 mph - N/A   Clear
1:55 AM 24.4 °F 17.5 °F 21.4 °F 88% 30.15 in 10.0 mi East 5.8 mph - N/A   Clear
2:55 AM 26.6 °F 21.2 °F 22.3 °F 84% 30.15 in 10.0 mi East 4.6 mph - N/A   Clear
3:55 AM 21.2 °F 16.4 °F 19.0 °F 91% 30.15 in 10.0 mi ENE 3.5 mph - N/A   Clear
4:55 AM 24.3 °F 18.4 °F 21.6 °F 89% 30.15 in 10.0 mi East 4.6 mph - N/A   Clear
5:55 AM 25.3 °F 18.5 °F 21.7 °F 86% 30.17 in 10.0 mi East 5.8 mph - N/A   Clear
6:55 AM 24.6 °F 17.7 °F 21.7 °F 89% 30.19 in 10.0 mi ESE 5.8 mph - N/A   Clear
7:55 AM 25.2 °F 18.3 °F 22.1 °F 88% 30.20 in 10.0 mi East 5.8 mph - N/A   Clear
10:34 AM 35.6 °F 26.6 °F 26.6 °F 70% 30.14 in 10.0 mi ESE 13.8 mph - N/A   Clear
11:55 AM 37.8 °F 28.6 °F 27.0 °F 65% 30.15 in 10.0 mi East 16.1 mph - N/A   Clear
12:55 PM 39.6 °F 33.0 °F 28.2 °F 64% 30.14 in 10.0 mi ESE 10.4 mph - N/A   Clear
1:55 PM 41.0 °F 34.7 °F 28.4 °F 61% 30.12 in 10.0 mi East 10.4 mph - N/A   Clear
2:55 PM 41.9 °F 34.6 °F 27.5 °F 57% 30.10 in 10.0 mi East 13.8 mph - N/A   Clear
3:55 PM 42.3 °F 35.9 °F 28.9 °F 59% 30.08 in 10.0 mi East 11.5 mph 18.4 mph N/A   Clear
4:55 PM 41.2 °F 33.4 °F 28.6 °F 61% 30.07 in 10.0 mi ENE 15.0 mph - N/A   Clear
5:55 PM 38.1 °F 30.2 °F 27.3 °F 65% 30.06 in 10.0 mi ENE 12.7 mph - N/A   Clear
7:55 PM 35.8 °F 27.8 °F 27.9 °F 73% 30.02 in 10.0 mi ENE 11.5 mph - N/A   Clear
8:55 PM 34.9 °F 26.2 °F 28.0 °F 76% 29.99 in 10.0 mi ENE 12.7 mph - N/A   Clear
9:55 PM 34.9 °F 27.1 °F 28.0 °F 76% 30.02 in 10.0 mi East 10.4 mph - N/A   Scattered Clouds
10:55 PM 34.0 °F 24.2 °F 28.0 °F 79% 29.99 in 10.0 mi ENE 15.0 mph - N/A   Mostly Cloudy
11:55 PM 33.3 °F 22.8 °F 28.0 °F 81% 29.95 in 10.0 mi ENE 16.1 mph - N/A   Scattered Clouds